St. Cloud, MN

10:03 AM CDT on October 23, 2019 (GMT -0500)
Saint Cloud Regional

Weather History for KSTC - May, 2019

Change the Weather History Date:

Monday, May 27, 2019

  Actual Average Record
Temperature  
Mean Temperature 52 °F 60 °F  
Max Temperature 57 °F 72 °F 97 °F (1969)
Min Temperature 46 °F 48 °F 28 °F (1907)
Degree Days  
Heating Degree Days 14 6  
Month to date heating degree days 395 264  
Since 1 July heating degree days 9193 8431  
Cooling Degree Days 0 1  
Month to date cooling degree days 0 19  
Year to date cooling degree days 0 21  
Growing Degree Days 2 (Base 50)    
Moisture  
Dew Point 45 °F    
Average Humidity 86    
Maximum Humidity 97    
Minimum Humidity 74    
Precipitation  
Precipitation 0.57 in 0.10 in 1.86 in (1963)
Month to date precipitation 6.34 2.54  
Year to date precipitation 13.69 7.90  
Snow  
Snow 0.00 in 0.00 in T in (1965)
Month to date snowfall 0.4 0.0  
Since 1 July snowfall 68.9 45.7  
Snow Depth 0.00 in    
Sea Level Pressure  
Sea Level Pressure 29.92 in    
Wind  
Wind Speed 9 mph ()    
Max Wind Speed 16 mph    
Max Gust Speed 25 mph    
Visibility 8.6 miles    
Events Rain    
T = Trace of Precipitation, MM = Missing Value Source: Averaged Metar Reports

Daily Weather History Graph

Daily Weather History Graph

Search for Another Location

Airport or City:

Astronomy

May. 27, 2019 Rise Set
Actual Time 5:34 AM CDT 8:53 PM CDT
Civil Twilight 4:57 AM CDT 9:29 PM CDT
Nautical Twilight 4:10 AM CDT 10:17 PM CDT
Astronomical Twilight 3:11 AM CDT 11:16 PM CDT
Moon 2:44 AM CDT (5/27) 1:41 PM CDT (5/27)
Length of Visible Light 16h 31m
Length of Day
15h 18m
Last Quarter, 40% of the Moon is Illuminated
May 27
Last Quarter
Jun 3
New
Jun 10
First Quarter
Jun 17
Full
Jun 25
Last Quarter

Hourly Weather History & Observations

Time (CDT) Temp. Dew Point Humidity Pressure Visibility Wind Dir Wind Speed Gust Speed Precip Events Conditions
12:53 AM 57.0 °F 50.0 °F 77% 30.04 in 10.0 mi NE 10.4 mph - N/A   Clear
1:53 AM 52.0 °F 45.0 °F 77% 30.03 in 10.0 mi NE 9.2 mph 18.4 mph N/A   Clear
2:53 AM 50.0 °F 43.0 °F 77% 30.03 in 10.0 mi ENE 11.5 mph - N/A   Clear
3:53 AM 48.9 °F 43.0 °F 80% 30.00 in 10.0 mi ENE 11.5 mph 20.7 mph N/A   Partly Cloudy
4:53 AM 48.9 °F 42.1 °F 77% 29.99 in 10.0 mi ENE 10.4 mph - N/A   Clear
5:53 AM 48.0 °F 41.0 °F 77% 29.98 in 10.0 mi ENE 10.4 mph 21.9 mph N/A   Scattered Clouds
6:53 AM 48.9 °F 41.0 °F 74% 29.98 in 10.0 mi ENE 8.1 mph 17.3 mph N/A   Clear
7:53 AM 48.9 °F 42.1 °F 77% 29.97 in 10.0 mi ENE 8.1 mph - N/A   Overcast
8:53 AM 50.0 °F 44.1 °F 80% 29.96 in 10.0 mi East 9.2 mph - 0.00 in Rain Light Rain
9:53 AM 48.0 °F 46.0 °F 93% 29.95 in 4.0 mi NE 10.4 mph - 0.04 in Rain Rain
10:53 AM 48.0 °F 46.0 °F 93% 29.92 in 5.0 mi NE 8.1 mph 21.9 mph 0.13 in Rain Light Rain
11:43 AM 48.0 °F 46.0 °F 93% 29.88 in 7.0 mi NE 11.5 mph - 0.06 in Rain Light Rain
11:53 AM 48.0 °F 46.0 °F 93% 29.92 in 7.0 mi NE 11.5 mph 21.9 mph 0.07 in Rain Light Rain
12:21 PM 48.0 °F 46.0 °F 93% 29.88 in 6.0 mi NNE 10.4 mph 20.7 mph 0.03 in Rain Light Rain
12:44 PM 48.0 °F 46.0 °F 93% 29.87 in 6.0 mi NNE 9.2 mph 19.6 mph 0.06 in Rain Light Rain
12:53 PM 46.9 °F 45.0 °F 93% 29.91 in 6.0 mi NNE 12.7 mph 20.7 mph 0.08 in Rain Light Rain
1:03 PM 46.9 °F 45.0 °F 93% 29.87 in 6.0 mi NE 12.7 mph 23.0 mph 0.01 in Rain Light Rain
1:36 PM 46.9 °F 46.0 °F 97% 29.86 in 5.0 mi NNE 10.4 mph 20.7 mph 0.07 in Rain Light Rain
1:53 PM 46.9 °F 45.0 °F 93% 29.89 in 8.0 mi NNE 12.7 mph 25.3 mph 0.10 in Rain Light Rain
2:53 PM 48.0 °F 46.0 °F 93% 29.88 in 6.0 mi NE 13.8 mph 21.9 mph 0.07 in Rain Light Rain
3:53 PM 48.9 °F 46.9 °F 93% 29.85 in 9.0 mi NNE 12.7 mph - 0.06 in Rain Light Rain
4:53 PM 51.1 °F 48.9 °F 92% 29.86 in 10.0 mi North 9.2 mph - 0.02 in   Overcast
5:53 PM 50.0 °F 46.9 °F 89% 29.88 in 10.0 mi North 15.0 mph 20.7 mph N/A   Overcast
6:07 PM 50.0 °F 46.9 °F 89% 29.83 in 10.0 mi North 11.5 mph 19.6 mph N/A   Overcast
6:53 PM 52.0 °F 46.9 °F 83% 29.86 in 10.0 mi NNE 9.2 mph 24.2 mph N/A   Overcast
7:13 PM 52.0 °F 46.9 °F 83% 29.84 in 10.0 mi NNE 10.4 mph - N/A   Overcast
7:53 PM 51.1 °F 46.9 °F 86% 29.89 in 10.0 mi NNE 10.4 mph - N/A   Overcast
8:53 PM 51.1 °F 46.0 °F 83% 29.90 in 10.0 mi NNE 6.9 mph - N/A   Overcast
9:53 PM 50.0 °F 44.1 °F 80% 29.94 in 10.0 mi NNE 9.2 mph - N/A   Overcast
10:30 PM 48.9 °F 43.0 °F 80% 29.89 in 10.0 mi NNE 6.9 mph - N/A   Overcast
10:53 PM 48.9 °F 43.0 °F 80% 29.94 in 10.0 mi NNE 6.9 mph - N/A   Overcast
11:53 PM 46.9 °F 43.0 °F 86% 29.93 in 10.0 mi North 5.8 mph - N/A   Mostly Cloudy